User: anonymous   Login
Location: Les Coudrans
(46.1056°N, 1.1158°W)
Time: 11:58:45
(UTC+00:00)
Language:

IRS-1A Rocket - Orbit

View from above orbital plane
View from above orbital plane
View from above satellite
View from above satellite

Ground track
Ground track

The orbit data is extracted from the following two-line orbital elements,

1 18961U 88021B   21138.11460970 -.00000251  00000-0 -13579-3 0  9995
2 18961  99.1885 187.7016 0053259 261.2096 152.8053 14.00724963695737
Epoch (UTC): 18 May 2021 02:45:02
Eccentricity: 0.0053259
inclination: 99.1885°
perigee height: 852 km
apogee height: 930 km
right ascension of ascending node: 187.7016°
argument of perigee: 261.2096°
revolutions per day: 14.00724963
mean anomaly at epoch: 152.8053°
orbit number at epoch: 69573

The dashed part of the orbit path shows where the satellite is in the earth's shadow,  

DLR